Time,TemperatureF,DewpointF,PressureIn,WindDirection,WindDirectionDegrees,WindSpeedMPH,WindSpeedGustMPH,Humidity,HourlyPrecipIn,Conditions,Clouds,dailyrainin,SoftwareType,DateUTC
2013-08-19 00:00:00,56.8,50.4,29.94,East,90,0.0,0.0,79,0.00,,SCT055,0.00,VWS V13.01,2013-08-19 07:00:00,
2013-08-19 00:01:00,56.8,50.4,29.91,East,90,0.0,0.0,79,0.00,,SCT055,0.00,VWS V13.01,2013-08-19 07:01:00,
2013-08-19 00:02:00,56.7,50.2,29.91,East,90,0.0,0.0,79,0.00,,SCT055,0.00,VWS V13.01,2013-08-19 07:02:00,
2013-08-19 00:03:00,56.7,49.9,29.91,East,90,0.0,0.0,78,0.00,,SCT055,0.00,VWS V13.01,2013-08-19 07:03:00,
2013-08-19 00:04:00,56.7,50.2,29.91,East,90,0.0,0.0,79,0.00,,SCT055,0.00,VWS V13.01,2013-08-19 07:04:00,
2013-08-19 00:05:00,56.7,50.2,29.91,East,90,0.0,0.0,79,0.00,,SCT055,0.00,VWS V13.01,2013-08-19 07:05:00,
2013-08-19 00:06:00,56.5,50.1,29.91,East,90,0.0,0.0,79,0.00,,SCT055,0.00,VWS V13.01,2013-08-19 07:06:00,
2013-08-19 00:07:00,56.5,50.1,29.91,East,90,0.0,0.0,79,0.00,,SCT055,0.00,VWS V13.01,2013-08-19 07:07:00,
2013-08-19 00:08:00,56.3,49.9,29.91,East,90,0.0,0.0,79,0.00,,SCT055,0.00,VWS V13.01,2013-08-19 07:08:00,
2013-08-19 00:09:00,56.3,49.9,29.91,East,90,0.0,0.0,79,0.00,,SCT055,0.00,VWS V13.01,2013-08-19 07:09:00,
2013-08-19 00:10:00,56.3,49.9,29.91,East,90,0.0,0.0,79,0.00,,SCT055,0.00,VWS V13.01,2013-08-19 07:10:00,
2013-08-19 00:11:00,56.3,49.9,29.91,East,90,0.0,0.0,79,0.00,,SCT055,0.00,VWS V13.01,2013-08-19 07:11:00,
2013-08-19 00:12:00,56.3,49.9,29.91,East,90,0.0,0.0,79,0.00,,SCT055,0.00,VWS V13.01,2013-08-19 07:12:00,
2013-08-19 00:13:00,56.3,49.9,29.91,East,90,0.0,0.0,79,0.00,,SCT055,0.00,VWS V13.01,2013-08-19 07:13:00,
2013-08-19 00:14:00,56.1,49.7,29.91,East,90,0.0,0.0,79,0.00,,SCT055,0.00,VWS V13.01,2013-08-19 07:14:00,
2013-08-19 00:15:00,56.1,49.7,29.91,East,90,0.0,0.0,79,0.00,,SCT055,0.00,VWS V13.01,2013-08-19 07:15:00,
2013-08-19 00:16:00,56.1,50.0,29.91,East,90,0.0,0.0,80,0.00,,SCT055,0.00,VWS V13.01,2013-08-19 07:16:00,
2013-08-19 00:17:00,56.1,50.0,29.91,East,90,0.0,0.0,80,0.00,,SCT055,0.00,VWS V13.01,2013-08-19 07:17:00,
2013-08-19 00:18:00,56.1,50.0,29.91,East,90,0.0,0.0,80,0.00,,SCT055,0.00,VWS V13.01,2013-08-19 07:18:00,
2013-08-19 00:19:00,55.9,49.9,29.91,East,90,0.0,0.0,80,0.00,,SCT055,0.00,VWS V13.01,2013-08-19 07:19:00,
2013-08-19 00:20:00,55.9,49.9,29.91,East,90,0.0,0.0,80,0.00,,SCT055,0.00,VWS V13.01,2013-08-19 07:20:00,
2013-08-19 00:21:00,55.9,49.9,29.91,East,90,0.0,0.0,80,0.00,,SCT055,0.00,VWS V13.01,2013-08-19 07:21:00,
2013-08-19 00:22:00,55.9,49.9,29.91,East,90,0.0,0.0,80,0.00,,SCT055,0.00,VWS V13.01,2013-08-19 07:22:00,
2013-08-19 00:23:00,55.8,49.7,29.91,ENE,68,0.0,0.0,80,0.00,,SCT055,0.00,VWS V13.01,2013-08-19 07:23:00,
2013-08-19 00:24:00,55.8,49.7,29.91,ESE,112,0.0,0.0,80,0.00,,SCT055,0.00,VWS V13.01,2013-08-19 07:24:00,
2013-08-19 00:25:00,55.8,49.7,29.91,ESE,112,0.0,0.0,80,0.00,,SCT055,0.00,VWS V13.01,2013-08-19 07:25:00,
2013-08-19 00:26:00,55.8,49.7,29.91,ESE,112,0.0,0.0,80,0.00,,SCT055,0.00,VWS V13.01,2013-08-19 07:26:00,
2013-08-19 00:27:00,55.6,49.8,29.91,ESE,112,0.0,0.0,81,0.00,,SCT055,0.00,VWS V13.01,2013-08-19 07:27:00,
2013-08-19 00:28:00,55.6,49.8,29.91,ESE,112,0.0,0.0,81,0.00,,SCT055,0.00,VWS V13.01,2013-08-19 07:28:00,
2013-08-19 00:29:00,55.6,49.8,29.91,ESE,112,0.0,0.0,81,0.00,,SCT055,0.00,VWS V13.01,2013-08-19 07:29:00,
2013-08-19 00:30:00,55.4,49.7,29.91,ESE,112,0.0,0.0,81,0.00,,SCT055,0.00,VWS V13.01,2013-08-19 07:30:00,
2013-08-19 00:31:00,55.4,49.7,29.91,SE,135,0.0,0.0,81,0.00,,SCT055,0.00,VWS V13.01,2013-08-19 07:31:00,
2013-08-19 00:32:00,55.4,49.7,29.91,SE,135,0.0,0.0,81,0.00,,SCT055,0.00,VWS V13.01,2013-08-19 07:32:00,
2013-08-19 00:33:00,55.4,49.7,29.91,ESE,112,0.0,0.0,81,0.00,,SCT055,0.00,VWS V13.01,2013-08-19 07:33:00,
2013-08-19 00:34:00,55.2,49.8,29.91,ESE,112,0.0,0.0,82,0.00,,SCT055,0.00,VWS V13.01,2013-08-19 07:34:00,
2013-08-19 00:35:00,55.2,49.8,29.91,ESE,112,0.0,0.0,82,0.00,,SCT055,0.00,VWS V13.01,2013-08-19 07:35:00,
2013-08-19 00:36:00,55.2,49.5,29.91,ESE,112,0.0,0.0,81,0.00,,SCT055,0.00,VWS V13.01,2013-08-19 07:36:00,
2013-08-19 00:37:00,55.2,49.8,29.91,ESE,112,0.0,0.0,82,0.00,,SCT055,0.00,VWS V13.01,2013-08-19 07:37:00,
2013-08-19 00:38:00,55.2,49.8,29.91,ESE,112,0.0,0.0,82,0.00,,SCT055,0.00,VWS V13.01,2013-08-19 07:38:00,
2013-08-19 00:39:00,55.2,49.8,29.91,ESE,112,0.0,0.0,82,0.00,,SCT055,0.00,VWS V13.01,2013-08-19 07:39:00,
2013-08-19 00:40:00,55.2,49.8,29.91,ESE,112,0.0,0.0,82,0.00,,SCT055,0.00,VWS V13.01,2013-08-19 07:40:00,
2013-08-19 00:41:00,55.2,49.8,29.91,ESE,112,0.0,0.0,82,0.00,,SCT055,0.00,VWS V13.01,2013-08-19 07:41:00,
2013-08-19 00:42:00,55.2,49.8,29.91,ESE,112,0.0,0.0,82,0.00,,SCT055,0.00,VWS V13.01,2013-08-19 07:42:00,
2013-08-19 00:43:00,55.0,49.7,29.91,ESE,112,0.0,0.0,82,0.00,,SCT055,0.00,VWS V13.01,2013-08-19 07:43:00,
2013-08-19 00:44:00,55.0,49.7,29.91,ESE,112,0.0,0.0,82,0.00,,SCT055,0.00,VWS V13.01,2013-08-19 07:44:00,
2013-08-19 00:45:00,55.0,49.7,29.91,ESE,112,0.0,0.0,82,0.00,,SCT055,0.00,VWS V13.01,2013-08-19 07:45:00,
2013-08-19 00:46:00,55.0,49.7,29.91,ESE,112,0.0,0.0,82,0.00,,SCT055,0.00,VWS V13.01,2013-08-19 07:46:00,
2013-08-19 00:47:00,55.0,50.0,29.91,ESE,112,0.0,0.0,83,0.00,,SCT055,0.00,VWS V13.01,2013-08-19 07:47:00,
2013-08-19 00:48:00,55.0,50.3,29.91,ESE,112,0.0,0.0,84,0.00,,SCT055,0.00,VWS V13.01,2013-08-19 07:48:00,
2013-08-19 00:49:00,55.0,50.3,29.91,ESE,112,0.0,0.0,84,0.00,,SCT055,0.00,VWS V13.01,2013-08-19 07:49:00,
2013-08-19 00:50:00,55.0,50.3,29.91,ESE,112,0.0,0.0,84,0.00,,SCT055,0.00,VWS V13.01,2013-08-19 07:50:00,
2013-08-19 00:51:00,54.9,49.8,29.91,ESE,112,0.0,0.0,83,0.00,,SCT055,0.00,VWS V13.01,2013-08-19 07:51:00,
2013-08-19 00:52:00,54.9,49.8,29.91,ESE,112,0.0,0.0,83,0.00,,SCT055,0.00,VWS V13.01,2013-08-19 07:52:00,
2013-08-19 00:53:00,54.9,49.8,29.91,ESE,112,0.0,0.0,83,0.00,,SCT055,0.00,VWS V13.01,2013-08-19 07:53:00,
2013-08-19 00:54:00,54.9,49.8,29.91,East,90,0.0,0.0,83,0.00,,SCT055,0.00,VWS V13.01,2013-08-19 07:54:00,
2013-08-19 00:55:00,54.9,49.8,29.91,East,90,0.0,0.0,83,0.00,,SCT055,0.00,VWS V13.01,2013-08-19 07:55:00,
2013-08-19 00:56:00,55.0,50.3,29.91,East,90,0.0,0.0,84,0.00,,SCT055,0.00,VWS V13.01,2013-08-19 07:56:00,
2013-08-19 00:57:00,55.0,50.3,29.91,East,90,0.0,0.0,84,0.00,,SCT055,0.00,VWS V13.01,2013-08-19 07:57:00,
2013-08-19 00:58:00,55.0,50.3,29.91,East,90,0.0,0.0,84,0.00,,SCT055,0.00,VWS V13.01,2013-08-19 07:58:00,
2013-08-19 00:59:00,55.0,50.3,29.91,NE,45,0.0,0.0,84,0.00,,SCT055,0.00,VWS V13.01,2013-08-19 07:59:00,
2013-08-19 01:00:00,55.0,50.3,29.91,NE,45,0.0,0.0,84,0.00,,SCT055,0.00,VWS V13.01,2013-08-19 08:00:00,
2013-08-19 01:01:00,55.2,50.5,29.91,NE,45,0.0,0.0,84,0.00,,SCT055,0.00,VWS V13.01,2013-08-19 08:01:00,
2013-08-19 01:02:00,55.2,50.5,29.91,East,90,0.0,0.0,84,0.00,,SCT055,0.00,VWS V13.01,2013-08-19 08:02:00,
2013-08-19 01:03:00,55.2,50.5,29.91,East,90,0.0,0.0,84,0.00,,SCT055,0.00,VWS V13.01,2013-08-19 08:03:00,
2013-08-19 01:04:00,55.2,50.5,29.91,East,90,0.0,0.0,84,0.00,,SCT055,0.00,VWS V13.01,2013-08-19 08:04:00,
2013-08-19 01:05:00,55.2,50.5,29.91,East,90,0.0,0.0,84,0.00,,SCT055,0.00,VWS V13.01,2013-08-19 08:05:00,
2013-08-19 01:06:00,55.2,50.5,29.91,East,90,0.0,0.0,84,0.00,,SCT055,0.00,VWS V13.01,2013-08-19 08:06:00,
2013-08-19 01:07:00,55.2,50.5,29.91,East,90,0.0,0.0,84,0.00,,SCT055,0.00,VWS V13.01,2013-08-19 08:07:00,
2013-08-19 01:08:00,55.2,50.8,29.91,East,90,0.0,0.0,85,0.00,,SCT055,0.00,VWS V13.01,2013-08-19 08:08:00,
2013-08-19 01:09:00,55.2,50.8,29.91,East,90,0.0,0.0,85,0.00,,SCT055,0.00,VWS V13.01,2013-08-19 08:09:00,
2013-08-19 01:10:00,55.2,50.8,29.91,East,90,0.0,0.0,85,0.00,,SCT055,0.00,VWS V13.01,2013-08-19 08:10:00,
2013-08-19 01:11:00,55.4,50.7,29.91,NE,45,0.9,2.2,84,0.00,,SCT055,0.00,VWS V13.01,2013-08-19 08:11:00,
2013-08-19 01:12:00,55.4,51.0,29.91,NE,45,0.0,0.9,85,0.00,,SCT055,0.00,VWS V13.01,2013-08-19 08:12:00,
2013-08-19 01:13:00,55.4,51.0,29.91,NE,45,0.0,1.6,85,0.00,,SCT055,0.00,VWS V13.01,2013-08-19 08:13:00,
2013-08-19 01:14:00,55.6,51.2,29.91,East,90,0.0,0.0,85,0.00,,SCT055,0.00,VWS V13.01,2013-08-19 08:14:00,
2013-08-19 01:15:00,55.6,51.2,29.91,East,90,0.0,0.9,85,0.00,,SCT055,0.00,VWS V13.01,2013-08-19 08:15:00,
2013-08-19 01:16:00,55.8,51.6,29.91,NE,45,0.0,1.3,86,0.00,,SCT055,0.00,VWS V13.01,2013-08-19 08:16:00,
2013-08-19 01:17:00,55.8,51.6,29.91,East,90,0.0,0.0,86,0.00,,SCT055,0.00,VWS V13.01,2013-08-19 08:17:00,
2013-08-19 01:18:00,55.8,51.3,29.91,ENE,68,0.0,0.0,85,0.00,,SCT055,0.00,VWS V13.01,2013-08-19 08:18:00,
2013-08-19 01:19:00,55.8,51.3,29.91,East,90,0.0,0.0,85,0.00,,SCT055,0.00,VWS V13.01,2013-08-19 08:19:00,
2013-08-19 01:20:00,55.8,51.3,29.91,East,90,0.0,0.0,85,0.00,,SCT055,0.00,VWS V13.01,2013-08-19 08:20:00,
2013-08-19 01:21:00,55.8,51.3,29.91,East,90,0.0,0.0,85,0.00,,SCT055,0.00,VWS V13.01,2013-08-19 08:21:00,
2013-08-19 01:22:00,55.8,51.3,29.91,East,90,0.0,0.0,85,0.00,,SCT055,0.00,VWS V13.01,2013-08-19 08:22:00,
2013-08-19 01:23:00,55.8,51.3,29.91,West,270,0.0,0.0,85,0.00,,SCT055,0.00,VWS V13.01,2013-08-19 08:23:00,
2013-08-19 01:24:00,55.8,51.3,29.91,SSE,158,0.0,0.0,85,0.00,,SCT055,0.00,VWS V13.01,2013-08-19 08:24:00,
2013-08-19 01:25:00,55.8,51.3,29.91,SSE,158,0.0,0.0,85,0.00,,SCT055,0.00,VWS V13.01,2013-08-19 08:25:00,
2013-08-19 01:26:00,55.9,51.5,29.91,ESE,112,0.0,0.0,85,0.00,,SCT055,0.00,VWS V13.01,2013-08-19 08:26:00,
2013-08-19 01:27:00,55.9,51.5,29.91,East,90,0.0,0.0,85,0.00,,SCT055,0.00,VWS V13.01,2013-08-19 08:27:00,
2013-08-19 01:28:00,55.9,51.5,29.91,East,90,0.0,0.0,85,0.00,,SCT055,0.00,VWS V13.01,2013-08-19 08:28:00,
2013-08-19 01:29:00,55.9,51.5,29.91,East,90,0.0,0.0,85,0.00,,SCT055,0.00,VWS V13.01,2013-08-19 08:29:00,
2013-08-19 01:30:00,55.9,51.5,29.91,East,90,0.0,0.0,85,0.00,,SCT055,0.00,VWS V13.01,2013-08-19 08:30:00,
2013-08-19 01:31:00,55.9,51.5,29.91,East,90,0.0,0.0,85,0.00,,SCT055,0.00,VWS V13.01,2013-08-19 08:31:00,
2013-08-19 01:32:00,55.9,51.5,29.91,East,90,0.0,0.0,85,0.00,,SCT055,0.00,VWS V13.01,2013-08-19 08:32:00,
2013-08-19 01:33:00,55.9,51.5,29.91,East,90,0.0,0.0,85,0.00,,SCT055,0.00,VWS V13.01,2013-08-19 08:33:00,
2013-08-19 01:34:00,55.9,51.5,29.91,NNE,22,0.0,0.0,85,0.00,,SCT055,0.00,VWS V13.01,2013-08-19 08:34:00,
2013-08-19 01:35:00,55.9,51.5,29.91,NNE,22,0.0,0.0,85,0.00,,SCT055,0.00,VWS V13.01,2013-08-19 08:35:00,
2013-08-19 01:36:00,55.9,51.5,29.91,ESE,112,0.0,0.0,85,0.00,,SCT055,0.00,VWS V13.01,2013-08-19 08:36:00,
2013-08-19 01:37:00,55.9,51.5,29.91,WSW,248,0.0,0.0,85,0.00,,SCT055,0.00,VWS V13.01,2013-08-19 08:37:00,
2013-08-19 01:38:00,55.9,51.5,29.91,West,270,0.0,0.0,85,0.00,,SCT055,0.00,VWS V13.01,2013-08-19 08:38:00,
2013-08-19 01:39:00,55.9,51.5,29.91,NE,45,0.0,0.0,85,0.00,,SCT055,0.00,VWS V13.01,2013-08-19 08:39:00,
2013-08-19 01:40:00,55.9,51.5,29.91,NE,45,0.0,0.0,85,0.00,,SCT055,0.00,VWS V13.01,2013-08-19 08:40:00,
2013-08-19 01:41:00,56.1,51.7,29.91,East,90,0.0,0.0,85,0.00,,SCT055,0.00,VWS V13.01,2013-08-19 08:41:00,
2013-08-19 01:42:00,56.1,51.7,29.91,SE,135,0.0,0.0,85,0.00,,SCT055,0.00,VWS V13.01,2013-08-19 08:42:00,
2013-08-19 01:43:00,56.1,51.7,29.91,East,90,0.0,0.0,85,0.00,,SCT055,0.00,VWS V13.01,2013-08-19 08:43:00,
2013-08-19 01:44:00,56.1,51.7,29.91,East,90,0.0,0.0,85,0.00,,SCT055,0.00,VWS V13.01,2013-08-19 08:44:00,
2013-08-19 01:45:00,56.1,51.7,29.91,North,0,0.0,0.0,85,0.00,,SCT055,0.00,VWS V13.01,2013-08-19 08:45:00,
2013-08-19 01:46:00,56.3,51.9,29.91,East,90,0.0,0.0,85,0.00,,SCT055,0.00,VWS V13.01,2013-08-19 08:46:00,
2013-08-19 01:47:00,56.1,51.7,29.91,NE,45,0.0,0.0,85,0.00,,SCT055,0.00,VWS V13.01,2013-08-19 08:47:00,
2013-08-19 01:48:00,56.1,51.4,29.91,ESE,112,0.0,0.0,84,0.00,,SCT055,0.00,VWS V13.01,2013-08-19 08:48:00,
2013-08-19 01:49:00,56.1,51.7,29.91,East,90,0.0,0.0,85,0.00,,SCT055,0.00,VWS V13.01,2013-08-19 08:49:00,
2013-08-19 01:50:00,56.1,51.7,29.91,ENE,68,0.0,0.0,85,0.00,,SCT055,0.00,VWS V13.01,2013-08-19 08:50:00,
2013-08-19 01:51:00,56.3,51.9,29.91,East,90,0.0,0.0,85,0.00,,SCT055,0.00,VWS V13.01,2013-08-19 08:51:00,
2013-08-19 01:52:00,56.3,51.9,29.91,East,90,0.0,0.0,85,0.00,,SCT055,0.00,VWS V13.01,2013-08-19 08:52:00,
2013-08-19 01:53:00,56.1,51.7,29.91,East,90,2.9,2.9,85,0.00,,SCT055,0.00,VWS V13.01,2013-08-19 08:53:00,
2013-08-19 01:54:00,56.3,51.9,29.91,ESE,112,0.0,0.0,85,0.00,,SCT055,0.00,VWS V13.01,2013-08-19 08:54:00,
2013-08-19 01:55:00,56.3,51.9,29.91,ESE,112,0.0,0.9,85,0.00,,SCT055,0.00,VWS V13.01,2013-08-19 08:55:00,
2013-08-19 01:56:00,56.3,51.9,29.91,NNE,22,0.0,0.0,85,0.00,,SCT055,0.00,VWS V13.01,2013-08-19 08:56:00,
2013-08-19 01:57:00,56.3,51.9,29.91,NE,45,1.3,1.3,85,0.00,,SCT055,0.00,VWS V13.01,2013-08-19 08:57:00,
2013-08-19 01:58:00,56.3,51.9,29.91,ENE,68,0.0,1.3,85,0.00,,SCT055,0.00,VWS V13.01,2013-08-19 08:58:00,
2013-08-19 01:59:00,56.1,51.7,29.91,SE,135,0.0,0.0,85,0.00,,SCT055,0.00,VWS V13.01,2013-08-19 08:59:00,
2013-08-19 02:00:00,56.3,51.9,29.91,SE,135,0.0,0.9,85,0.00,,SCT055,0.00,VWS V13.01,2013-08-19 09:00:00,
2013-08-19 02:01:00,56.1,51.7,29.91,SE,135,0.0,0.0,85,0.00,,SCT055,0.00,VWS V13.01,2013-08-19 09:01:00,
2013-08-19 02:02:00,56.1,51.7,29.91,ENE,68,0.0,0.0,85,0.00,,SCT055,0.00,VWS V13.01,2013-08-19 09:02:00,
2013-08-19 02:03:00,56.1,51.7,29.91,NE,45,0.0,0.0,85,0.00,,SCT055,0.00,VWS V13.01,2013-08-19 09:03:00,
2013-08-19 02:04:00,56.1,51.7,29.91,ENE,68,0.0,0.0,85,0.00,,SCT055,0.00,VWS V13.01,2013-08-19 09:04:00,
2013-08-19 02:05:00,56.1,51.7,29.91,ENE,68,0.0,0.0,85,0.00,,SCT055,0.00,VWS V13.01,2013-08-19 09:05:00,
2013-08-19 02:06:00,56.1,51.7,29.91,SE,135,0.0,0.0,85,0.00,,SCT055,0.00,VWS V13.01,2013-08-19 09:06:00,
2013-08-19 02:07:00,56.1,51.7,29.91,East,90,0.0,0.0,85,0.00,,SCT055,0.00,VWS V13.01,2013-08-19 09:07:00,
2013-08-19 02:08:00,56.1,51.7,29.91,East,90,0.0,0.0,85,0.00,,SCT055,0.00,VWS V13.01,2013-08-19 09:08:00,
2013-08-19 02:09:00,56.3,51.9,29.91,NE,45,0.0,0.0,85,0.00,,SCT055,0.00,VWS V13.01,2013-08-19 09:09:00,
2013-08-19 02:10:00,56.3,51.9,29.91,ENE,68,0.0,1.1,85,0.00,,SCT055,0.00,VWS V13.01,2013-08-19 09:10:00,
2013-08-19 02:11:00,56.3,51.9,29.91,ENE,68,0.0,0.0,85,0.00,,SCT055,0.00,VWS V13.01,2013-08-19 09:11:00,
2013-08-19 02:12:00,56.3,51.9,29.91,NE,45,0.0,0.0,85,0.00,,SCT055,0.00,VWS V13.01,2013-08-19 09:12:00,
2013-08-19 02:13:00,56.3,51.9,29.91,NE,45,0.0,0.0,85,0.00,,SCT055,0.00,VWS V13.01,2013-08-19 09:13:00,
2013-08-19 02:14:00,56.3,51.9,29.91,ENE,68,0.0,0.0,85,0.00,,SCT055,0.00,VWS V13.01,2013-08-19 09:14:00,
2013-08-19 02:15:00,56.3,51.9,29.91,East,90,0.0,0.0,85,0.00,,SCT055,0.00,VWS V13.01,2013-08-19 09:15:00,
2013-08-19 02:16:00,56.3,51.9,29.91,SE,135,1.3,3.1,85,0.00,,SCT055,0.00,VWS V13.01,2013-08-19 09:16:00,
2013-08-19 02:17:00,56.5,52.3,29.91,ENE,68,0.0,2.0,86,0.00,,SCT055,0.00,VWS V13.01,2013-08-19 09:17:00,
2013-08-19 02:18:00,56.7,52.5,29.91,North,0,0.0,0.9,86,0.00,,SCT055,0.00,VWS V13.01,2013-08-19 09:18:00,
2013-08-19 02:19:00,56.7,52.5,29.91,ENE,68,0.0,0.0,86,0.00,,SCT055,0.00,VWS V13.01,2013-08-19 09:19:00,
2013-08-19 02:20:00,56.7,52.5,29.91,ESE,112,0.0,0.0,86,0.00,,SCT055,0.00,VWS V13.01,2013-08-19 09:20:00,
2013-08-19 02:21:00,56.7,52.5,29.91,ENE,68,0.0,0.0,86,0.00,,SCT055,0.00,VWS V13.01,2013-08-19 09:21:00,
2013-08-19 02:22:00,56.7,52.5,29.91,North,0,0.0,0.9,86,0.00,,SCT055,0.00,VWS V13.01,2013-08-19 09:22:00,
2013-08-19 02:23:00,56.7,52.5,29.91,South,180,0.0,1.6,86,0.00,,SCT055,0.00,VWS V13.01,2013-08-19 09:23:00,
2013-08-19 02:24:00,56.7,52.5,29.91,ENE,68,2.2,2.7,86,0.00,,SCT055,0.00,VWS V13.01,2013-08-19 09:24:00,
2013-08-19 02:25:00,56.7,52.5,29.91,NNW,338,0.0,0.0,86,0.00,,SCT055,0.00,VWS V13.01,2013-08-19 09:25:00,
2013-08-19 02:26:00,56.8,52.7,29.91,East,90,0.9,2.7,86,0.00,,SCT055,0.00,VWS V13.01,2013-08-19 09:26:00,
2013-08-19 02:27:00,56.8,52.7,29.91,ESE,112,0.0,0.9,86,0.00,,SCT055,0.00,VWS V13.01,2013-08-19 09:27:00,
2013-08-19 02:28:00,56.8,52.7,29.91,NE,45,0.0,3.6,86,0.00,,SCT055,0.00,VWS V13.01,2013-08-19 09:28:00,
2013-08-19 02:29:00,57.0,52.9,29.91,SE,135,0.0,2.2,86,0.00,,SCT055,0.00,VWS V13.01,2013-08-19 09:29:00,
2013-08-19 02:30:00,57.0,52.9,29.91,SE,135,2.2,2.5,86,0.00,,SCT055,0.00,VWS V13.01,2013-08-19 09:30:00,
2013-08-19 02:31:00,57.0,52.9,29.91,NNE,22,2.9,2.9,86,0.00,,SCT055,0.00,VWS V13.01,2013-08-19 09:31:00,
2013-08-19 02:32:00,57.2,52.7,29.91,NNE,22,2.7,3.4,85,0.00,,SCT055,0.00,VWS V13.01,2013-08-19 09:32:00,
2013-08-19 02:33:00,57.2,52.7,29.91,South,180,3.6,4.3,85,0.00,,SCT055,0.00,VWS V13.01,2013-08-19 09:33:00,
2013-08-19 02:34:00,57.4,52.9,29.91,ENE,68,3.8,3.8,85,0.00,,SCT055,0.00,VWS V13.01,2013-08-19 09:34:00,
2013-08-19 02:35:00,57.4,52.9,29.91,NNE,22,1.6,2.5,85,0.00,,SCT055,0.00,VWS V13.01,2013-08-19 09:35:00,
2013-08-19 02:36:00,57.4,52.9,29.91,NE,45,0.0,3.8,85,0.00,,SCT055,0.00,VWS V13.01,2013-08-19 09:36:00,
2013-08-19 02:37:00,57.4,52.9,29.91,NE,45,2.7,3.6,85,0.00,,SCT055,0.00,VWS V13.01,2013-08-19 09:37:00,
2013-08-19 02:38:00,57.6,53.1,29.91,WSW,248,3.8,3.8,85,0.00,,SCT055,0.00,VWS V13.01,2013-08-19 09:38:00,
2013-08-19 02:39:00,57.7,53.0,29.91,SE,135,3.1,3.1,84,0.00,,SCT055,0.00,VWS V13.01,2013-08-19 09:39:00,
2013-08-19 02:40:00,57.7,52.9,29.91,South,180,0.9,4.9,84,0.00,,SCT055,0.00,VWS V13.01,2013-08-19 09:40:00,
2013-08-19 02:41:00,57.7,52.9,29.91,ENE,68,3.8,3.8,84,0.00,,SCT055,0.00,VWS V13.01,2013-08-19 09:41:00,
2013-08-19 02:42:00,57.7,52.9,29.91,NE,45,1.1,3.8,84,0.00,,SCT055,0.00,VWS V13.01,2013-08-19 09:42:00,
2013-08-19 02:43:00,57.7,52.9,29.91,SE,135,0.0,1.1,84,0.00,,SCT055,0.00,VWS V13.01,2013-08-19 09:43:00,
2013-08-19 02:44:00,57.7,53.0,29.91,ENE,68,1.6,1.6,84,0.00,,SCT055,0.00,VWS V13.01,2013-08-19 09:44:00,
2013-08-19 02:45:00,57.7,52.9,29.91,South,180,0.0,1.6,84,0.00,,SCT055,0.00,VWS V13.01,2013-08-19 09:45:00,
2013-08-19 02:46:00,57.7,52.9,29.91,NW,315,3.1,3.1,84,0.00,,SCT055,0.00,VWS V13.01,2013-08-19 09:46:00,
2013-08-19 02:47:00,57.7,52.9,29.91,East,90,2.9,3.1,84,0.00,,SCT055,0.00,VWS V13.01,2013-08-19 09:47:00,
2013-08-19 02:48:00,57.9,53.1,29.91,NE,45,2.5,4.0,84,0.00,,SCT055,0.00,VWS V13.01,2013-08-19 09:48:00,
2013-08-19 02:49:00,57.9,52.8,29.91,South,180,0.0,0.0,83,0.00,,SCT055,0.00,VWS V13.01,2013-08-19 09:49:00,
2013-08-19 02:50:00,57.9,52.8,29.91,NE,45,0.0,2.5,83,0.00,,SCT055,0.00,VWS V13.01,2013-08-19 09:50:00,
2013-08-19 02:51:00,57.9,52.8,29.91,South,180,2.0,2.5,83,0.00,,SCT055,0.00,VWS V13.01,2013-08-19 09:51:00,
2013-08-19 02:52:00,58.1,53.0,29.91,ESE,112,1.3,3.6,83,0.00,,SCT055,0.00,VWS V13.01,2013-08-19 09:52:00,
2013-08-19 02:53:00,58.1,53.0,29.91,ENE,68,2.7,2.9,83,0.00,,SCT055,0.00,VWS V13.01,2013-08-19 09:53:00,
2013-08-19 02:54:00,58.1,53.0,29.91,NNW,338,0.0,2.7,83,0.00,,SCT055,0.00,VWS V13.01,2013-08-19 09:54:00,
2013-08-19 02:55:00,58.1,53.0,29.91,NE,45,0.0,0.0,83,0.00,,SCT055,0.00,VWS V13.01,2013-08-19 09:55:00,
2013-08-19 02:56:00,58.1,53.0,29.91,SSW,202,0.0,0.0,83,0.00,,SCT055,0.00,VWS V13.01,2013-08-19 09:56:00,
2013-08-19 02:57:00,58.1,53.0,29.91,South,180,0.0,3.4,83,0.00,,SCT055,0.00,VWS V13.01,2013-08-19 09:57:00,
2013-08-19 02:58:00,58.1,53.0,29.91,ESE,112,0.0,2.9,83,0.00,,SCT055,0.00,VWS V13.01,2013-08-19 09:58:00,
2013-08-19 02:59:00,58.1,53.0,29.91,East,90,0.0,0.0,83,0.00,,SCT055,0.00,VWS V13.01,2013-08-19 09:59:00,
2013-08-19 03:00:00,58.1,53.0,29.91,East,90,1.1,2.2,83,0.00,,SCT055,0.00,VWS V13.01,2013-08-19 10:00:00,
2013-08-19 03:01:00,58.1,53.0,29.91,East,90,0.0,2.2,83,0.00,,SCT055,0.00,VWS V13.01,2013-08-19 10:01:00,
2013-08-19 03:02:00,58.1,53.0,29.91,NE,45,0.0,0.0,83,0.00,,SCT055,0.00,VWS V13.01,2013-08-19 10:02:00,
2013-08-19 03:03:00,58.1,53.0,29.91,SE,135,0.0,2.5,83,0.00,,SCT055,0.00,VWS V13.01,2013-08-19 10:03:00,
2013-08-19 03:04:00,58.1,52.6,29.91,SE,135,0.0,0.0,82,0.00,,SCT055,0.00,VWS V13.01,2013-08-19 10:04:00,
2013-08-19 03:05:00,57.9,52.5,29.91,South,180,0.0,0.0,82,0.00,,SCT055,0.00,VWS V13.01,2013-08-19 10:05:00,
2013-08-19 03:06:00,57.9,52.5,29.91,NE,45,0.0,0.9,82,0.00,,SCT055,0.00,VWS V13.01,2013-08-19 10:06:00,
2013-08-19 03:07:00,58.1,52.6,29.91,SE,135,0.0,0.0,82,0.00,,SCT055,0.00,VWS V13.01,2013-08-19 10:07:00,
2013-08-19 03:08:00,58.1,52.6,29.91,ENE,68,0.0,1.3,82,0.00,,SCT055,0.00,VWS V13.01,2013-08-19 10:08:00,
2013-08-19 03:09:00,58.1,52.6,29.91,NE,45,0.0,0.0,82,0.00,,SCT055,0.00,VWS V13.01,2013-08-19 10:09:00,
2013-08-19 03:10:00,58.1,52.6,29.91,South,180,0.0,2.0,82,0.00,,SCT055,0.00,VWS V13.01,2013-08-19 10:10:00,
2013-08-19 03:11:00,58.1,52.6,29.91,East,90,0.0,2.0,82,0.00,,SCT055,0.00,VWS V13.01,2013-08-19 10:11:00,
2013-08-19 03:12:00,58.1,52.6,29.91,North,0,0.0,0.0,82,0.00,,SCT055,0.00,VWS V13.01,2013-08-19 10:12:00,
2013-08-19 03:13:00,58.1,52.6,29.91,NE,45,2.2,2.2,82,0.00,,SCT055,0.00,VWS V13.01,2013-08-19 10:13:00,
2013-08-19 03:14:00,58.1,52.6,29.91,SW,225,0.0,2.2,82,0.00,,SCT055,0.00,VWS V13.01,2013-08-19 10:14:00,
2013-08-19 03:15:00,58.5,52.7,29.91,ENE,68,1.1,1.1,81,0.00,,SCT055,0.00,VWS V13.01,2013-08-19 10:15:00,
2013-08-19 03:16:00,58.5,52.7,29.91,SW,225,2.7,2.7,81,0.00,,SCT055,0.00,VWS V13.01,2013-08-19 10:16:00,
2013-08-19 03:17:00,58.5,52.7,29.91,NE,45,0.0,2.7,81,0.00,,SCT055,0.00,VWS V13.01,2013-08-19 10:17:00,
2013-08-19 03:18:00,58.5,52.7,29.91,NE,45,0.0,0.0,81,0.00,,SCT055,0.00,VWS V13.01,2013-08-19 10:18:00,
2013-08-19 03:19:00,58.5,52.7,29.91,ENE,68,2.5,2.5,81,0.00,,SCT055,0.00,VWS V13.01,2013-08-19 10:19:00,
2013-08-19 03:20:00,58.5,52.7,29.91,East,90,0.0,1.1,81,0.00,,SCT055,0.00,VWS V13.01,2013-08-19 10:20:00,
2013-08-19 03:21:00,58.5,52.7,29.91,East,90,0.0,1.1,81,0.00,,SCT055,0.00,VWS V13.01,2013-08-19 10:21:00,
2013-08-19 03:22:00,58.6,52.8,29.91,SSE,158,2.5,2.5,81,0.00,,SCT055,0.00,VWS V13.01,2013-08-19 10:22:00,
2013-08-19 03:23:00,58.6,52.8,29.91,South,180,0.0,2.5,81,0.00,,SCT055,0.00,VWS V13.01,2013-08-19 10:23:00,
2013-08-19 03:24:00,58.6,52.8,29.91,East,90,1.6,1.6,81,0.00,,SCT055,0.00,VWS V13.01,2013-08-19 10:24:00,
2013-08-19 03:25:00,58.8,52.7,29.91,East,90,0.0,2.7,80,0.00,,SCT055,0.00,VWS V13.01,2013-08-19 10:25:00,
2013-08-19 03:26:00,58.8,52.7,29.91,East,90,0.0,2.7,80,0.00,,SCT055,0.00,VWS V13.01,2013-08-19 10:26:00,
2013-08-19 03:27:00,58.8,52.7,29.91,ENE,68,1.3,2.7,80,0.00,,SCT055,0.00,VWS V13.01,2013-08-19 10:27:00,
2013-08-19 03:28:00,58.8,52.3,29.91,NE,45,0.0,2.0,79,0.00,,SCT055,0.00,VWS V13.01,2013-08-19 10:28:00,
2013-08-19 03:29:00,58.8,52.3,29.91,NNE,22,0.0,1.1,79,0.00,,SCT055,0.00,VWS V13.01,2013-08-19 10:29:00,
2013-08-19 03:30:00,59.0,52.2,29.91,NNE,22,0.9,4.0,78,0.00,,SCT055,0.00,VWS V13.01,2013-08-19 10:30:00,
2013-08-19 03:31:00,59.0,52.2,29.91,ENE,68,0.0,4.0,78,0.00,,SCT055,0.00,VWS V13.01,2013-08-19 10:31:00,
2013-08-19 03:32:00,59.0,52.2,29.91,NE,45,2.0,3.4,78,0.00,,SCT055,0.00,VWS V13.01,2013-08-19 10:32:00,
2013-08-19 03:33:00,59.0,51.8,29.91,NE,45,3.4,4.3,77,0.00,,SCT055,0.00,VWS V13.01,2013-08-19 10:33:00,
2013-08-19 03:34:00,59.2,52.0,29.91,SW,225,0.0,3.4,77,0.00,,SCT055,0.00,VWS V13.01,2013-08-19 10:34:00,
2013-08-19 03:35:00,59.2,52.0,29.91,NE,45,1.6,2.7,77,0.00,,SCT055,0.00,VWS V13.01,2013-08-19 10:35:00,
2013-08-19 03:36:00,59.2,52.0,29.91,NE,45,1.6,2.7,77,0.00,,SCT055,0.00,VWS V13.01,2013-08-19 10:36:00,
2013-08-19 03:37:00,59.2,52.0,29.91,NE,45,3.6,3.6,77,0.00,,SCT055,0.00,VWS V13.01,2013-08-19 10:37:00,
2013-08-19 03:38:00,59.2,51.6,29.91,East,90,0.0,3.6,76,0.00,,SCT055,0.00,VWS V13.01,2013-08-19 10:38:00,
2013-08-19 03:39:00,59.2,51.6,29.91,ESE,112,0.0,1.3,76,0.00,,SCT055,0.00,VWS V13.01,2013-08-19 10:39:00,